94P/Russell 4 (2023)

Japanese version
Home page
Updated on December 11, 2020

---------------------------------------------------------------------

* Profile

* Orbital Elements

Epoch 2023 May 16.0 TT = JDT 2460080.5                                          
T 2023 May 21.07209 TT                                  Rudenko                 
q   2.2270699            (2000.0)            P               Q                  
n   0.14988158     Peri.   92.41716     -0.95218409     -0.28805803             
a   3.5099738      Node    70.85499     +0.21948747     -0.87677458             
e   0.3655024      Incl.    6.18764     +0.21253404     -0.38508298             
P   6.58                                                                        
From 1470 observations 1984 Mar. 2-2020 Sept. 12, mean residual 0".7.           

* Finding Charts

* Magnitudes Graph

        H = 14.5  G = 0.15             [    ,-210]  (             - 2022 Oct. 23)
        m1 = 3.0 + 5 log d + 35 log r  [-210, 155]  (2022 Oct. 23 - 2023 Oct. 23)
        H = 14.5  G = 0.15             [ 155,    ]  (2023 Oct. 23 -             )

---------------------------------------------------------------------

The orbital elements are published on M.P.E.C. 2020-S188.
The charts are made with StellaNavigator Ver.10 (AstroArts).
The magnitudes graphs are made with Comet for Windows.

---------------------------------------------------------------------

Copyright(C) Seiichi Yoshida (comet@aerith.net). All rights reserved.